GEFSNGP_con_maxscp_198.txt.gz
SCP
0 0 0 0 0 0 0 0 1 1 2 3 4 4 5 6 6 6 7 7 6 5 5 5 5 6 6 7 7 8 8 8 6 5 5 5 5 4 4 3 2 2 1 1
0 0 0 0 0 0 0 1 1 2 2 3 4 5 5 6 6 6 6 6 5 5 5 6 6 7 9 9 8 8 8 8 7 6 5 5 5 4 4 3 3 2 2 2
0 0 0 0 0 0 1 1 2 2 3 5 6 6 6 6 7 7 6 6 6 5 6 7 9 12 13 11 9 8 8 7 7 6 5 4 4 4 4 3 3 3 3 3
0 0 0 0 0 1 2 3 3 3 5 7 7 7 7 7 7 7 7 7 7 6 7 11 15 17 14 10 8 7 7 7 6 5 4 3 3 3 3 3 3 3 3 3
0 0 0 1 1 2 3 4 4 5 6 7 7 7 7 7 8 8 8 7 7 9 14 18 20 17 12 7 5 5 5 5 6 5 4 3 3 3 2 2 2 3 3 3
1 1 1 1 2 2 3 4 5 5 6 6 6 5 6 7 8 8 8 7 9 14 19 20 17 12 7 4 3 4 4 4 5 6 4 3 3 3 3 2 2 3 3 3
1 1 1 1 2 2 3 4 4 5 5 6 7 7 8 9 9 8 8 8 10 13 15 13 10 7 5 4 3 4 4 4 4 4 3 3 3 3 3 3 3 3 3 3
1 1 1 2 2 3 3 4 5 6 7 10 12 13 12 11 10 8 8 8 8 8 7 6 6 6 5 5 4 4 4 3 3 3 3 3 3 3 3 4 4 4 4 3
1 2 2 3 3 3 4 6 8 10 14 16 17 16 15 13 11 9 7 7 6 5 4 4 5 6 6 6 6 5 4 3 3 2 3 3 3 3 4 5 5 5 4 3
2 3 3 4 4 5 5 7 10 13 16 17 16 15 13 12 10 8 7 6 6 5 4 4 5 6 7 7 7 6 5 4 3 3 3 3 3 4 5 5 6 5 4 3
3 3 4 5 5 6 6 8 9 10 11 11 12 12 11 10 8 6 6 6 5 5 5 5 7 8 8 8 7 7 5 4 4 3 3 3 4 4 5 5 6 5 4 3
3 3 4 5 5 6 6 7 7 7 7 7 8 8 8 6 5 5 6 6 5 5 5 6 7 8 8 8 7 6 5 4 3 3 3 4 4 5 5 4 4 3 3 2
3 4 4 5 5 6 6 6 6 6 6 6 7 7 6 5 4 4 6 6 6 6 6 6 7 8 7 7 7 6 5 3 2 2 3 3 4 4 4 3 2 1 1 1
5 6 6 5 6 6 5 5 5 5 5 5 5 5 5 4 3 4 5 6 7 6 6 6 7 7 6 6 5 5 4 3 2 1 1 2 3 4 3 2 1 0 0 0
6 6 6 6 6 5 5 4 4 4 4 4 4 4 4 3 3 3 3 5 6 6 6 6 6 6 5 5 4 4 3 2 1 1 1 1 2 3 3 2 1 0 0 0
4 5 5 4 4 4 3 3 3 3 3 3 3 3 3 3 3 2 3 5 5 5 5 5 6 5 5 4 3 3 2 2 1 0 0 1 1 2 2 1 0 0 0 0
3 3 3 3 3 2 2 2 2 2 3 3 2 2 2 3 3 3 4 5 5 5 5 5 5 5 4 3 3 2 2 1 1 1 0 0 1 1 1 0 0 0 0 0
2 1 1 1 2 1 1 1 1 1 2 2 1 2 2 2 3 4 5 5 5 5 4 4 4 4 3 2 2 2 2 1 1 1 0 0 0 0 0 0 0 0 0 0
1 1 1 1 1 1 1 1 1 1 1 1 1 1 2 2 3 4 4 5 5 4 3 2 2 2 2 1 1 1 1 1 1 1 0 0 0 0 0 0 0 0 0 0
1 1 1 1 1 1 0 0 0 0 0 1 1 1 1 1 2 3 4 4 4 3 2 1 1 1 1 1 1 1 1 1 1 1 0 0 0 0 0 0 0 0 0 0
2 2 2 1 1 1 0 0 0 0 0 1 1 1 1 1 2 3 3 3 2 2 2 1 1 1 0 0 1 1 1 1 1 0 0 0 0 0 0 0 0 0 0 0
2 3 3 2 1 0 0 0 0 0 1 1 1 1 1 1 2 2 2 2 2 2 1 1 0 0 0 0 0 0 0 0 0 0 0 0 0 0 0 0 0 0 0 0
1 2 2 1 1 0 0 0 1 1 1 0 0 1 1 1 2 2 2 2 2 1 1 1 0 0 0 0 0 0 0 0 0 0 0 0 0 0 0 0 0 0 0 0
1 1 1 1 0 0 0 0 1 1 1 0 0 1 1 1 1 2 2 2 2 1 1 1 0 0 0 0 0 0 0 0 0 0 0 0 0 0 0 0 0 0 0 0
1 1 0 0 0 0 0 0 0 0 0 0 0 0 0 0 0 1 1 2 2 1 1 1 0 0 0 0 0 0 0 0 0 0 0 0 0 0 0 0 0 0 0 0
0 0 0 0 0 0 0 0 0 0 0 0 0 0 0 0 0 0 1 2 2 1 1 1 0 0 0 0 0 0 0 0 0 0 0 0 0 0 0 0 0 0 0 0
0 0 0 0 0 0 0 0 0 0 0 0 0 0 0 0 0 0 0 1 2 2 1 1 0 0 0 0 0 0 0 0 0 0 0 0 0 0 0 0 0 0 0 0

GEFSNGP_con_maxscp_204.txt.gz
SCP
0 0 0 0 0 0 0 0 0 0 0 1 1 2 2 2 2 3 3 3 3 3 2 2 2 3 3 4 4 4 4 4 3 3 3 4 4 4 4 3 3 2 2 1
0 0 0 0 0 0 0 0 0 0 1 1 2 2 2 2 2 3 3 3 3 3 2 2 3 3 4 4 5 4 4 4 4 3 3 4 4 5 5 4 4 3 3 3
0 0 0 0 0 0 0 0 1 1 1 2 2 3 3 2 3 3 3 3 3 3 3 3 3 4 5 6 5 5 5 4 4 4 4 4 4 5 5 5 5 4 4 3
0 0 0 0 1 1 1 1 1 1 2 3 4 4 3 3 3 3 3 3 3 3 3 3 3 5 7 8 7 6 5 5 5 4 4 4 4 4 4 5 5 4 4 3
0 0 0 0 1 1 1 1 1 2 3 4 5 4 4 3 3 4 4 3 3 3 3 4 5 7 9 9 7 6 5 5 5 5 4 4 4 4 4 4 4 4 3 3
0 0 0 0 1 1 1 1 1 2 3 4 4 3 3 3 3 4 4 3 3 3 4 5 7 9 9 8 7 6 5 5 4 4 4 4 4 4 4 3 3 2 2 1
0 0 0 1 1 1 1 1 1 2 4 3 3 3 3 3 3 4 4 3 4 4 5 6 7 8 7 6 5 5 4 3 3 3 3 3 3 3 3 2 2 1 1 1
0 0 1 1 1 1 1 1 1 3 3 3 3 3 3 3 4 4 4 4 5 5 5 5 5 5 5 5 4 3 3 2 2 2 2 3 3 3 2 2 1 1 1 1
1 1 2 2 2 2 2 2 2 2 3 3 3 3 4 4 5 5 4 5 5 4 4 4 4 4 4 3 3 3 2 2 2 2 2 2 2 2 2 2 2 1 1 1
2 2 4 4 4 3 3 3 3 3 3 2 3 3 4 5 5 4 4 4 4 4 4 5 5 4 3 3 3 3 3 3 3 2 2 2 2 2 2 2 2 2 2 2
2 3 5 5 4 3 3 3 3 3 3 2 3 3 4 4 5 4 4 4 4 5 5 5 4 3 3 3 3 4 4 4 3 3 3 3 3 3 3 3 3 2 2 3
2 3 4 4 3 2 2 2 2 3 3 3 3 3 4 4 5 4 4 3 4 4 4 3 3 2 2 3 3 4 4 4 4 4 3 3 3 4 4 3 3 2 2 2
1 2 2 3 2 2 2 2 2 2 3 3 3 3 4 5 5 4 3 3 3 4 3 2 2 2 2 2 3 3 4 4 4 4 3 2 3 4 4 4 3 2 1 1
1 1 2 2 3 2 2 2 3 3 3 3 3 3 4 5 5 4 3 3 3 3 3 2 2 3 3 3 4 4 5 5 4 4 3 2 2 2 3 3 3 2 1 1
1 1 2 3 3 3 3 3 3 3 4 4 3 3 3 4 4 3 2 2 2 2 2 2 3 3 4 5 6 6 6 5 4 3 2 1 1 1 2 2 2 2 1 0
1 2 2 3 3 3 3 3 3 3 4 4 4 3 3 3 3 2 2 2 1 2 2 2 3 4 5 6 7 6 5 4 3 2 1 1 0 0 1 1 2 1 1 1
1 2 3 3 3 3 2 2 3 3 3 4 3 3 2 2 2 2 2 2 2 2 2 2 3 3 5 6 6 5 4 2 1 1 0 0 0 0 0 0 1 1 1 1
2 3 3 4 3 3 2 2 2 2 2 3 3 2 2 1 1 1 2 2 2 2 2 2 3 3 4 4 4 4 2 1 1 0 0 0 0 0 0 0 0 0 1 0
3 3 3 3 2 2 1 1 1 1 1 2 2 1 1 1 1 1 2 2 2 2 2 2 2 3 3 3 3 2 1 1 0 0 0 0 0 0 0 0 0 0 0 0
3 3 2 1 1 1 1 1 1 1 1 1 1 1 1 1 1 1 2 2 2 2 1 2 2 2 2 2 2 1 1 0 0 0 0 0 0 0 0 0 0 0 0 0
1 1 1 1 0 0 0 0 0 0 0 0 0 0 0 0 0 1 1 2 2 1 1 2 2 2 2 2 2 1 1 0 0 0 0 0 0 0 0 0 0 0 0 0
0 0 0 0 0 0 0 0 0 0 0 0 0 0 0 0 0 1 1 1 1 1 1 1 1 2 2 2 2 1 1 0 0 0 0 0 0 0 0 0 0 0 0 0
0 0 0 0 0 0 0 0 0 0 0 0 0 0 0 0 0 0 1 1 1 1 1 1 1 1 1 1 1 1 1 0 0 0 0 0 0 0 0 0 0 0 0 0
0 0 0 0 0 0 0 0 0 0 0 0 0 0 0 0 0 0 0 0 0 0 0 1 0 0 1 1 1 1 0 0 0 0 0 0 0 0 0 0 0 0 0 0
0 0 0 0 0 0 0 0 0 0 0 0 0 0 0 0 0 0 0 0 0 0 0 0 0 0 0 1 0 0 0 0 0 0 0 0 0 0 0 0 0 0 0 0
0 0 0 0 1 1 0 0 0 0 0 0 0 0 0 0 0 0 0 0 0 0 0 0 0 0 0 0 0 0 0 0 0 0 0 0 0 0 0 0 0 0 0 0
1 1 1 1 1 1 0 0 0 0 0 0 0 0 0 0 0 0 0 0 0 0 0 0 0 0 0 0 0 0 0 0 0 0 0 0 0 0 0 0 0 0 0 0

GEFSNGP_con_maxscp_210.txt.gz
SCP
0 0 0 0 0 0 0 0 0 0 1 3 4 4 5 5 4 4 5 5 4 4 5 5 5 6 5 5 5 5 5 5 5 5 5 5 4 4 4 4 4 5 5 5
0 0 0 0 0 0 0 0 0 0 2 3 4 4 4 3 3 3 4 4 4 4 4 5 5 6 5 5 5 6 6 6 6 6 5 5 5 4 4 4 4 5 5 4
0 0 0 0 0 0 0 0 0 1 2 3 4 3 3 2 2 2 3 5 6 5 5 5 5 5 5 6 7 7 8 7 7 6 6 6 5 5 5 5 5 5 4 4
0 0 0 0 0 0 0 1 1 1 2 3 4 3 2 2 2 2 3 5 7 6 5 5 5 5 6 7 9 9 9 8 7 7 6 6 6 6 6 6 5 4 4 4
0 0 0 0 0 1 1 1 1 1 2 4 4 3 3 3 3 3 3 5 6 7 6 6 6 6 7 9 9 9 8 8 7 7 6 6 7 8 8 7 6 5 5 5
0 0 0 0 1 1 1 1 1 2 2 3 4 4 4 4 4 4 4 4 5 6 7 8 8 8 8 9 8 8 7 7 7 7 7 7 8 9 9 7 7 6 6 5
0 0 0 1 1 1 1 1 2 2 2 3 3 4 5 5 5 5 5 5 5 6 8 9 10 9 9 8 7 6 6 7 8 7 7 7 8 9 8 7 6 6 6 5
0 1 1 2 2 2 2 2 2 2 3 3 4 4 5 5 6 6 6 6 6 7 9 10 10 10 9 8 7 6 7 8 8 8 7 7 7 8 7 6 5 5 5 5
1 1 2 2 3 4 4 4 3 3 3 3 4 3 4 4 6 7 7 6 6 7 8 9 9 9 9 8 7 8 9 10 10 9 8 7 7 7 6 5 4 3 3 4
2 2 2 3 4 5 5 4 4 4 4 4 4 3 3 4 5 7 7 6 6 7 7 7 7 8 8 8 8 10 11 11 10 9 8 7 6 5 5 4 3 2 3 3
2 2 3 4 5 5 5 4 4 4 5 6 5 3 3 3 5 6 7 7 6 6 6 6 6 7 7 8 8 9 9 8 7 6 6 5 5 4 4 3 2 2 2 2
3 3 4 4 4 4 4 4 4 4 5 6 5 3 3 3 4 5 7 7 7 7 7 6 6 7 8 8 8 7 6 5 5 5 5 5 4 4 3 3 2 2 2 2
3 4 4 3 3 4 4 4 4 4 4 4 4 4 4 4 4 5 6 7 7 7 7 7 8 8 9 9 8 6 5 5 5 6 6 6 5 4 3 3 2 2 1 1
3 3 3 3 3 4 4 4 4 3 3 3 3 4 5 6 5 6 7 8 7 7 7 7 7 7 7 7 7 6 5 5 6 7 7 6 5 4 3 3 2 2 2 1
2 3 3 3 3 4 4 4 3 3 3 3 3 4 6 8 8 9 9 8 7 6 6 5 5 4 4 4 4 4 4 5 5 6 5 5 4 4 3 2 2 3 3 2
2 3 3 3 4 5 4 4 3 2 3 3 4 4 6 7 10 11 11 10 7 5 5 4 3 3 2 2 2 3 3 4 4 5 4 4 4 4 3 2 2 2 3 3
2 2 2 3 4 5 4 3 2 2 3 3 3 4 4 6 8 11 12 11 8 5 4 3 3 2 2 2 3 3 3 4 4 4 4 4 4 4 3 2 2 2 2 2
2 2 2 3 4 4 4 3 3 3 3 3 4 4 4 5 7 9 10 10 8 6 5 3 2 2 2 3 4 4 4 4 4 3 3 3 3 3 2 2 1 1 2 2
2 3 3 3 4 4 4 5 5 5 5 5 5 5 5 5 6 7 7 8 7 6 5 3 2 2 2 3 4 4 4 4 3 2 2 1 2 2 2 1 1 1 1 1
3 3 3 3 3 3 4 4 5 6 6 6 5 5 5 5 4 4 5 5 6 5 4 3 2 2 2 3 3 4 4 3 2 1 1 1 1 1 1 1 0 0 0 0
3 3 3 3 3 3 3 3 3 4 4 4 4 4 3 3 3 3 3 4 4 4 3 3 3 3 3 3 3 3 3 2 2 1 1 1 1 1 0 0 0 0 0 0
3 3 3 3 3 3 2 2 2 2 2 2 2 2 2 2 2 2 2 3 3 3 3 3 3 3 3 3 3 2 2 2 1 1 1 1 0 0 0 0 0 0 0 0
4 3 3 3 2 2 2 2 2 1 1 1 1 1 1 1 1 1 1 1 2 2 2 3 3 3 2 2 3 2 2 1 1 1 1 0 0 0 0 0 0 0 0 0
3 3 3 2 2 2 1 1 1 1 1 1 1 1 1 1 1 1 1 0 1 1 2 2 2 2 2 2 2 2 1 1 1 1 1 0 0 0 0 0 0 0 0 0
2 2 2 2 1 1 1 1 2 2 1 1 1 1 1 1 1 0 0 0 0 1 1 1 1 1 1 2 2 2 2 1 1 1 1 1 1 1 1 1 0 0 0 0
1 1 1 1 1 1 1 1 2 2 1 1 1 1 1 1 1 0 0 0 0 0 1 1 1 1 2 2 2 2 2 1 1 1 1 1 1 1 1 0 0 0 0 0
1 1 1 1 1 1 1 1 2 2 1 1 1 1 1 1 0 0 0 0 0 0 1 1 1 1 2 2 2 2 2 1 1 1 0 0 0 0 0 0 0 0 0 0

GEFSNGP_con_maxscp_216.txt.gz
SCP
0 0 0 0 0 0 0 0 0 0 3 8 11 10 7 5 5 6 6 6 7 7 7 7 7 8 8 7 7 7 7 8 8 7 7 7 7 7 7 7 7 7 7 6
0 0 0 0 0 0 0 0 0 0 3 8 10 9 7 6 5 6 6 7 8 7 7 8 8 8 8 8 8 8 8 8 8 8 8 8 7 7 7 7 8 8 7 6
1 0 0 0 0 0 0 0 0 1 5 8 8 7 6 6 6 6 6 8 8 7 7 8 8 9 9 10 10 9 8 8 9 10 9 8 8 8 8 8 9 9 7 6
0 0 0 0 0 0 0 0 1 2 5 7 7 6 6 7 7 6 6 7 7 6 7 9 9 9 10 11 10 9 9 8 9 10 10 9 8 9 9 9 10 10 8 7
0 0 0 1 1 0 0 1 2 3 6 8 7 6 6 7 7 6 5 6 6 6 7 9 10 10 10 10 10 9 9 9 9 10 10 10 9 10 10 10 11 11 9 8
1 1 1 1 2 2 1 2 2 4 7 8 7 6 6 7 8 7 6 7 7 7 8 10 11 11 10 10 10 10 10 10 9 10 10 9 10 10 11 10 11 11 10 9
1 1 1 2 4 4 3 3 4 6 8 8 6 6 6 7 7 7 7 7 8 8 10 11 11 11 11 11 12 12 11 10 10 10 9 9 10 11 11 10 10 11 11 10
1 2 3 4 5 5 5 5 6 7 8 9 8 8 7 7 7 8 8 8 8 9 11 12 11 11 12 14 15 14 12 11 10 10 9 9 9 10 10 10 11 11 10 9
3 4 5 6 6 6 7 6 6 7 8 9 9 9 9 9 9 9 9 9 9 9 11 11 11 12 13 15 16 15 12 11 10 9 8 7 8 9 10 10 10 9 7 6
5 5 6 6 6 6 6 6 6 6 8 8 8 8 9 11 12 12 11 10 10 9 10 11 12 14 15 15 15 13 11 9 8 7 5 5 6 8 8 8 7 6 5 5
5 6 6 5 5 5 6 7 7 7 8 9 7 7 9 11 12 12 11 11 10 9 9 11 13 14 14 14 13 11 8 7 5 4 3 4 5 5 5 4 4 4 3 3
5 6 6 5 4 4 6 9 10 9 8 8 7 8 9 10 10 10 11 11 10 9 10 11 11 11 10 11 10 9 7 5 4 3 3 3 4 3 3 2 2 2 2 2
5 6 6 5 4 4 5 7 9 9 8 8 8 8 10 10 9 10 12 12 11 9 9 9 8 8 8 7 7 7 6 5 4 4 4 4 4 3 3 2 2 2 1 1
4 5 6 6 5 5 5 5 6 7 8 10 11 11 11 10 10 11 13 12 10 8 7 6 6 7 6 6 6 6 5 5 5 5 4 4 4 4 4 3 3 2 1 1
3 3 4 5 6 6 5 5 4 5 7 10 13 14 12 11 10 10 11 10 8 7 6 6 6 6 6 6 6 6 6 6 6 5 5 4 4 4 4 4 4 2 2 2
2 2 2 3 4 5 5 5 5 5 6 8 10 12 12 11 10 10 9 8 7 7 7 6 6 6 7 7 7 7 7 7 6 5 5 4 4 4 4 4 3 2 2 2
2 2 2 2 2 3 4 5 5 5 5 6 7 9 10 11 11 11 9 8 7 7 7 7 7 7 7 8 8 8 7 6 5 4 4 4 4 4 4 4 3 2 1 1
2 2 2 2 2 3 3 4 4 4 5 6 7 7 8 9 11 12 12 11 10 9 8 7 7 7 7 7 7 7 6 5 4 4 4 4 4 4 4 4 3 2 1 1
2 3 3 3 3 3 3 3 3 4 4 5 6 6 6 7 9 11 13 14 14 13 11 8 6 5 6 6 6 6 4 4 3 3 3 3 3 4 4 4 3 2 1 1
3 3 3 3 3 2 3 4 4 5 5 5 5 5 5 5 6 8 10 11 12 12 11 8 6 5 5 5 5 5 4 3 3 3 3 3 3 4 5 4 2 1 1 1
4 4 4 3 3 3 4 5 6 6 7 6 5 5 4 4 5 6 7 7 7 7 7 8 8 6 5 4 4 5 4 4 3 3 3 3 4 4 4 3 2 1 0 0
5 5 4 4 4 4 5 6 6 7 7 6 5 4 4 4 4 5 5 5 4 4 5 6 7 7 5 4 4 4 4 4 4 3 3 3 3 3 3 2 1 1 0 0
6 5 5 4 5 5 6 6 5 6 7 6 4 4 3 3 3 4 3 3 2 2 3 4 4 4 4 4 4 4 4 3 3 3 3 3 2 2 1 1 1 1 1 1
5 4 4 4 4 4 4 4 4 5 6 6 4 3 3 3 2 2 2 1 1 2 2 3 3 2 3 3 4 3 3 3 2 2 2 2 2 1 1 1 1 1 1 1
3 3 4 4 4 3 3 3 4 4 5 5 4 3 3 2 2 2 2 1 1 1 2 2 2 2 2 3 3 3 2 2 2 2 2 2 2 1 1 1 1 1 2 2
3 4 4 4 4 3 3 3 3 4 4 4 3 3 3 2 2 2 2 1 0 1 1 1 1 1 2 3 3 3 3 2 2 3 3 3 2 2 1 1 1 1 2 2
4 4 5 4 4 3 3 4 4 3 3 3 3 2 2 2 2 2 2 1 0 0 0 1 1 1 2 2 2 2 3 3 3 4 4 3 2 2 2 2 1 2 2 2

GEFSNGP_con_maxscp_222.txt.gz
SCP
0 0 0 0 0 0 0 0 0 1 1 3 4 5 5 6 7 7 7 6 5 4 4 4 4 4 4 4 5 5 5 5 5 4 4 3 3 4 4 3 2 2 2 2
0 0 0 0 0 0 0 0 0 1 2 4 6 6 5 5 6 6 6 5 5 4 4 4 4 4 4 5 5 5 6 6 5 5 4 4 3 4 4 4 3 3 3 4
0 0 0 0 0 0 0 0 1 1 3 5 7 7 5 5 5 6 6 5 5 5 5 5 5 5 5 6 6 6 6 6 6 5 5 4 4 3 4 5 4 4 4 6
0 0 0 0 0 1 1 1 2 2 4 6 8 7 7 6 6 7 7 6 5 5 5 6 7 7 7 8 8 7 6 5 5 5 4 4 4 3 4 5 5 5 5 6
0 0 0 0 1 1 2 2 3 4 5 8 10 9 8 7 7 9 9 7 6 6 6 7 8 9 9 10 9 8 7 6 5 5 4 4 4 3 4 4 5 6 6 5
0 0 0 1 2 2 2 3 4 5 7 10 11 9 8 7 8 11 13 10 7 7 8 8 9 10 11 10 9 9 8 7 6 5 4 4 4 4 4 5 6 6 5 5
0 0 0 1 2 2 3 4 5 6 7 9 9 8 7 7 8 11 13 10 8 8 9 8 9 11 11 11 10 10 10 8 7 6 5 4 4 5 5 5 5 5 4 3
0 0 0 1 2 2 3 5 6 7 7 8 8 8 8 8 7 8 8 8 8 9 9 10 10 11 12 12 12 12 11 10 9 7 4 4 4 4 5 5 5 4 3 2
1 1 1 2 2 3 4 5 6 7 7 8 8 8 9 9 8 8 8 8 9 11 12 12 12 12 13 13 13 13 12 12 10 6 3 3 3 4 5 5 5 4 2 2
2 2 2 3 3 3 3 5 6 7 7 7 8 9 10 11 11 12 12 11 13 16 17 16 14 12 13 13 12 12 12 12 9 5 2 2 3 4 5 5 5 4 3 2
2 3 3 3 3 3 3 4 5 6 7 7 8 10 12 13 15 17 17 17 20 23 24 21 17 14 12 11 11 11 12 10 7 3 2 2 2 3 4 4 4 3 2 2
2 3 3 3 3 3 3 4 5 5 6 7 8 9 13 16 18 19 20 22 25 27 27 23 19 14 10 9 10 11 11 8 5 3 2 2 1 1 2 2 2 2 2 2
2 3 3 3 4 4 4 6 6 6 6 7 8 9 14 19 21 19 20 23 25 25 25 23 18 13 9 8 8 9 8 7 5 4 3 2 2 2 2 1 1 1 1 1
3 3 3 3 4 4 6 8 9 8 8 9 10 11 16 20 21 21 24 26 25 23 22 20 16 11 8 6 6 6 6 6 6 5 4 4 3 3 3 2 1 1 0 0
4 4 3 3 3 4 6 9 11 11 10 10 11 13 16 20 21 24 28 28 24 21 19 17 13 9 6 4 4 5 6 7 7 7 6 5 5 4 4 3 2 1 0 0
4 4 2 2 3 4 5 6 8 10 10 10 11 13 16 20 22 22 23 22 19 16 13 11 9 6 4 3 3 5 6 7 8 8 7 7 6 5 4 3 2 1 1 0
3 3 2 2 2 3 4 4 6 7 9 10 12 12 15 19 19 17 15 13 11 9 8 7 6 4 3 3 4 6 7 7 7 7 7 7 6 5 4 3 2 1 1 1
2 2 1 1 1 2 3 4 6 7 8 9 10 11 14 16 15 13 12 12 10 8 7 6 5 4 4 4 5 6 7 7 7 7 7 6 6 5 4 3 2 2 1 1
1 1 1 1 1 1 3 5 7 8 8 7 7 10 13 14 13 12 14 15 14 11 8 5 5 5 5 5 5 6 7 7 7 7 6 6 5 5 4 4 3 2 1 1
2 2 2 1 1 2 4 7 9 9 7 5 5 7 11 12 11 11 13 13 12 10 7 5 5 5 5 5 6 6 7 6 6 6 6 6 5 5 5 4 3 2 1 0
2 2 2 2 3 4 6 9 10 9 6 4 3 4 6 7 6 7 8 8 7 6 5 4 5 6 6 6 6 7 7 7 6 6 6 5 5 5 5 4 3 2 1 0
2 2 3 4 5 5 7 8 8 7 5 3 3 2 2 2 3 4 5 5 4 3 3 3 4 6 7 7 8 8 8 8 7 6 6 5 5 5 4 3 2 1 1 0
2 2 3 5 5 5 5 7 6 5 3 3 2 2 1 1 2 3 4 3 3 2 1 2 3 5 7 9 9 9 10 9 8 7 6 6 5 4 4 3 2 1 1 0
2 2 2 3 4 4 5 5 4 3 2 2 2 2 1 2 2 3 2 2 1 1 1 1 1 4 7 9 10 10 10 10 9 7 7 6 5 4 3 2 2 1 1 0
2 2 2 2 3 4 4 4 3 2 2 1 1 1 1 1 1 1 1 1 0 0 0 0 1 2 4 7 8 8 9 8 7 6 6 6 5 4 3 2 1 1 0 0
1 2 2 2 3 3 3 3 2 2 2 1 1 1 1 1 1 1 0 0 0 0 0 0 0 1 2 4 4 5 5 5 5 4 5 5 4 3 3 2 1 1 0 0
1 1 1 2 3 3 3 3 2 2 1 1 1 1 1 1 1 0 0 0 0 0 0 0 0 1 1 2 3 4 4 4 3 3 4 4 4 3 3 2 1 1 0 0

GEFSNGP_con_maxscp_228.txt.gz
SCP
0 0 0 0 0 0 0 0 0 0 0 0 1 1 2 2 2 3 3 3 2 2 3 4 5 6 5 3 3 3 3 3 3 2 2 2 2 2 2 2 2 2 2 2
0 0 0 0 0 0 0 0 0 0 0 0 1 2 2 2 2 3 3 3 2 2 3 3 5 6 5 4 4 4 3 3 3 3 2 2 2 2 2 2 2 2 2 2
0 0 0 0 0 0 0 0 0 0 1 1 1 2 2 2 2 2 2 2 2 3 3 3 5 6 6 5 5 5 4 3 3 3 3 2 2 2 2 3 3 3 3 3
0 0 0 0 0 0 0 0 1 1 1 2 2 2 2 2 2 2 2 2 3 3 3 3 5 6 6 6 5 5 4 3 3 3 3 2 2 2 2 3 3 3 4 4
0 0 0 0 0 0 0 1 1 1 2 2 3 3 2 2 2 3 3 3 3 3 3 3 4 6 6 6 6 5 4 4 3 3 3 2 2 2 2 2 2 3 4 4
0 0 0 0 0 0 0 0 1 1 2 3 3 3 2 2 2 2 3 3 3 3 3 3 3 4 5 6 7 6 5 5 4 3 3 3 3 2 2 2 2 3 4 4
0 0 0 0 0 0 0 1 1 1 2 2 2 2 2 3 3 3 3 4 4 4 3 3 3 4 5 6 7 7 7 6 5 5 4 3 3 3 2 2 2 3 3 3
0 0 0 1 1 1 1 1 1 1 2 2 2 3 3 3 3 4 4 5 4 4 4 3 4 5 5 6 7 8 8 8 7 6 5 4 3 2 2 2 3 3 3 2
1 1 1 1 1 1 1 1 1 1 2 3 3 3 3 4 4 5 6 5 4 4 5 4 4 4 5 5 6 8 9 9 8 7 6 5 4 3 1 2 3 3 2 2
2 2 1 1 2 2 3 3 2 2 3 3 4 3 3 3 5 6 7 5 4 4 5 5 4 4 4 5 6 8 9 9 9 8 7 6 4 3 2 2 3 3 2 1
2 2 2 2 3 3 3 4 4 3 3 3 4 4 3 3 5 6 7 5 4 5 5 5 5 4 4 5 7 9 9 8 8 8 8 7 5 3 1 1 2 3 2 1
1 1 1 2 4 4 4 4 5 5 4 3 3 3 4 4 5 6 6 6 5 5 5 5 5 5 5 6 8 10 10 9 7 7 7 6 4 2 1 1 1 1 1 1
1 1 1 2 5 6 5 5 6 7 5 4 3 3 4 5 6 7 7 6 5 5 4 4 5 5 6 8 10 11 11 9 7 6 6 5 4 2 1 1 1 0 0 0
1 1 1 2 5 7 7 7 8 8 7 6 5 4 5 6 8 8 7 7 6 5 4 4 5 5 7 10 13 13 12 10 8 6 5 5 4 3 2 1 1 1 0 0
2 1 1 2 5 6 7 7 7 8 8 7 6 5 6 7 7 8 7 7 6 5 4 4 4 5 7 11 14 13 12 10 7 5 5 5 5 4 3 2 2 1 1 0
3 2 2 2 4 5 6 6 6 7 7 7 7 6 6 6 6 7 7 7 7 5 4 4 4 5 8 11 12 12 11 8 6 5 4 5 6 5 3 2 2 2 2 1
2 2 2 3 4 5 4 4 4 5 6 7 8 7 7 6 6 6 6 6 6 5 5 6 6 7 9 10 11 10 8 6 4 3 4 5 6 5 4 3 3 3 3 2
1 1 2 3 3 3 3 3 3 4 6 7 8 8 7 7 6 6 6 6 5 5 6 8 8 8 9 9 9 8 7 5 3 3 4 5 7 7 6 5 5 5 4 3
2 2 2 2 2 2 2 2 3 4 5 6 6 7 7 6 6 6 6 5 4 4 6 7 7 7 7 6 5 6 6 5 4 5 5 6 8 9 8 7 7 6 5 3
4 3 3 2 2 2 3 3 3 3 4 4 5 5 6 6 6 6 5 5 4 3 4 5 5 5 4 3 4 7 8 7 6 6 6 7 9 10 9 9 8 6 4 3
4 4 4 4 4 4 5 5 4 4 3 3 3 4 4 5 5 5 4 4 3 2 2 2 3 3 3 3 5 9 9 7 6 6 7 8 10 11 10 8 7 5 3 2
3 4 4 4 5 5 5 5 4 4 3 3 3 3 3 4 4 4 3 3 2 2 3 3 3 3 4 5 7 9 9 7 7 7 7 9 11 10 9 7 5 3 2 1
2 2 3 3 4 4 4 3 3 3 3 3 2 2 2 2 2 2 2 1 1 2 4 4 4 5 6 8 9 9 8 7 7 7 8 9 10 9 8 6 4 2 2 1
1 1 1 1 2 2 2 2 2 1 1 1 1 2 1 2 1 1 1 1 1 1 3 4 4 6 8 9 9 8 8 8 8 8 8 9 9 8 7 5 4 2 2 2
0 0 0 0 1 1 1 1 1 1 1 1 1 1 1 1 1 1 0 0 0 1 1 2 3 5 7 8 7 7 7 7 7 7 7 7 7 7 6 5 4 3 3 3
0 0 0 0 0 0 0 0 0 0 1 1 1 1 1 1 1 0 0 0 0 0 1 1 2 3 4 5 5 5 6 6 6 6 5 5 5 5 5 5 4 4 4 4
0 0 0 0 0 0 0 0 0 0 1 2 1 1 1 1 1 0 0 0 1 1 1 1 1 2 3 4 5 5 5 5 5 5 5 4 4 5 5 5 5 5 5 4

GEFSNGP_con_maxscp_234.txt.gz
SCP
0 0 0 0 0 0 0 0 0 0 0 0 1 1 1 2 3 3 3 5 8 8 6 4 4 4 4 6 7 6 5 5 5 5 4 4 3 3 3 3 3 2 2 1
0 0 0 0 0 0 0 0 0 0 0 1 1 1 2 2 3 4 3 4 7 8 7 5 4 4 4 5 6 6 6 7 7 6 5 4 4 3 3 3 3 3 2 2
0 0 0 0 0 0 0 0 0 1 1 1 1 1 2 3 4 4 3 3 5 7 7 5 4 4 4 4 5 7 8 9 8 6 5 4 4 3 4 4 4 4 3 3
0 0 0 0 0 0 1 1 1 1 1 1 1 2 2 3 4 4 4 4 4 5 5 5 5 4 4 4 6 8 10 11 10 9 7 5 4 4 4 4 4 4 4 3
0 0 0 0 0 0 1 1 1 1 1 2 1 1 2 3 4 5 6 5 4 4 5 5 5 4 4 5 7 10 12 12 11 10 9 6 5 4 4 4 4 4 4 4
0 0 0 0 0 0 1 1 1 1 1 2 2 2 2 3 5 6 6 5 5 5 6 6 5 5 5 5 7 9 12 12 11 10 9 8 6 5 5 5 5 5 5 5
0 0 0 0 1 1 1 2 2 2 2 2 2 2 3 4 5 6 6 5 6 7 8 8 7 5 5 5 6 7 9 10 9 9 10 9 7 6 6 6 6 6 6 6
0 0 1 1 1 2 3 4 3 3 2 2 2 3 4 4 5 5 5 6 7 9 10 10 8 6 5 5 6 6 7 8 9 10 10 9 8 7 7 6 6 6 5 5
1 1 1 2 3 4 5 5 5 4 3 3 3 4 5 5 5 5 5 6 9 11 12 11 9 7 6 6 6 6 7 7 8 9 10 9 9 8 7 6 5 5 4 3
2 2 2 2 3 4 5 5 5 4 4 3 4 5 5 5 5 6 6 7 9 11 12 11 9 7 6 6 6 7 7 7 8 8 10 11 10 9 8 7 5 4 4 4
2 2 2 2 3 3 4 4 4 4 3 3 4 4 5 6 6 7 7 7 9 11 11 10 8 7 6 6 7 7 8 8 8 8 10 11 11 10 8 7 5 4 4 4
3 3 3 3 3 4 4 4 3 3 3 3 3 4 5 6 7 8 7 7 8 10 11 11 9 7 6 6 7 8 8 9 8 8 9 11 12 10 8 6 4 3 3 3
3 3 4 4 5 5 4 4 4 4 4 4 4 4 6 7 8 9 8 7 8 10 11 11 9 8 7 6 7 8 9 9 9 8 9 11 12 11 9 6 3 1 1 1
3 4 4 5 6 6 5 5 4 4 5 5 5 5 6 8 10 9 8 7 7 9 10 10 9 8 7 6 6 8 9 9 8 8 8 10 12 12 10 7 4 2 1 1
3 4 4 5 6 6 6 5 4 5 5 5 5 5 7 9 10 9 8 8 9 10 10 10 9 8 6 6 6 7 8 8 7 7 8 10 13 13 11 8 6 4 2 1
4 4 3 3 4 5 5 6 6 6 6 6 5 5 7 9 9 9 9 10 11 11 11 11 10 8 6 6 6 6 6 6 5 6 9 11 13 13 11 8 6 5 3 2
4 3 3 3 4 4 5 6 7 8 8 7 6 6 7 9 11 11 12 12 12 12 11 11 10 8 7 6 6 6 5 4 4 6 10 13 13 13 11 8 6 5 3 3
3 3 3 3 4 4 5 6 6 8 8 8 7 6 7 10 13 15 15 14 13 12 11 10 9 7 7 6 6 6 5 4 5 7 11 13 13 12 10 8 6 4 3 3
3 3 3 3 3 4 5 5 6 7 7 7 7 6 8 10 14 15 15 14 12 11 10 8 7 7 6 6 5 5 4 4 5 8 11 12 12 11 9 6 5 3 3 3
3 3 3 3 3 3 4 5 7 8 8 7 7 7 8 10 12 13 13 12 11 11 9 8 7 7 7 6 5 4 4 4 5 7 10 10 10 8 6 5 3 3 3 3
3 3 3 4 4 5 5 7 10 12 10 7 6 7 8 8 9 10 10 10 10 10 8 7 6 7 7 6 5 5 5 5 5 7 8 8 7 6 4 3 3 2 3 4
3 4 4 5 6 6 7 9 13 15 12 8 5 5 6 7 7 8 8 8 8 7 6 5 5 5 5 4 4 5 5 5 6 6 6 5 4 4 3 2 2 3 4 4
4 4 5 6 6 7 8 10 12 13 12 9 7 5 4 5 5 6 6 5 5 4 4 4 3 3 2 3 4 4 4 5 5 5 4 3 3 3 2 2 3 4 5 6
3 3 3 4 5 6 7 8 9 10 10 9 8 6 4 4 4 5 5 4 3 3 3 3 2 1 1 2 4 4 5 5 5 5 4 3 3 3 3 4 5 6 7 7
2 2 2 2 2 3 4 6 7 7 8 7 6 5 4 4 4 5 4 3 2 3 4 3 1 1 1 3 5 5 5 5 6 6 5 3 3 4 5 6 7 8 8 8
2 2 2 2 2 2 3 4 4 4 4 4 4 3 3 4 4 4 3 3 2 3 4 4 2 1 2 3 4 4 4 5 5 6 5 4 5 5 7 8 9 9 9 8
2 2 2 2 3 3 3 3 3 2 3 3 3 3 3 3 3 3 3 3 2 3 4 4 3 2 2 3 3 3 3 4 4 5 5 5 6 7 9 10 11 10 9 8

GEFSNGP_con_maxscp_240.txt.gz
SCP
0 0 0 0 0 0 0 0 0 0 1 1 2 3 4 6 7 7 6 6 6 8 10 10 9 9 9 9 11 13 12 9 8 8 8 7 7 6 7 7 7 6 5 5
0 0 0 0 0 0 0 0 0 0 1 2 3 3 4 6 7 7 6 6 6 7 9 9 9 9 8 9 11 13 12 9 8 7 7 8 7 6 7 8 8 6 5 5
0 0 0 0 0 0 0 0 1 1 1 2 3 3 4 5 6 6 6 7 7 6 7 8 9 8 8 9 11 12 11 10 9 8 7 8 8 7 7 8 7 6 5 5
0 0 0 0 0 0 0 1 1 2 2 3 3 3 3 4 5 6 7 9 9 7 6 7 9 8 8 9 9 10 10 11 11 10 8 8 8 7 7 7 7 6 5 6
1 1 1 0 0 0 1 2 2 2 3 3 3 3 3 4 6 8 10 12 11 8 7 8 9 9 8 9 9 9 10 12 13 12 9 8 8 8 7 7 6 6 6 6
1 1 1 1 1 1 2 2 2 3 3 3 3 3 4 6 8 11 14 15 13 10 8 8 9 9 8 9 9 9 10 12 14 13 11 9 8 8 7 7 7 7 7 6
1 1 1 1 1 1 2 3 3 3 3 4 4 5 7 8 12 17 18 16 14 11 10 10 10 9 8 9 10 10 10 12 14 13 11 9 9 9 9 9 9 9 8 7
2 2 2 3 3 3 4 4 4 4 4 5 5 7 8 11 16 20 19 15 12 12 13 14 13 11 9 9 10 11 10 10 11 11 9 8 8 10 11 11 11 11 10 8
4 4 5 5 5 5 4 5 5 4 4 5 6 7 8 12 16 17 15 12 11 12 15 17 16 13 11 12 13 12 10 9 9 8 7 6 7 9 11 12 12 11 10 10
6 6 7 6 6 5 4 4 4 3 4 5 6 7 9 11 13 13 12 12 11 12 17 20 19 16 14 15 15 13 11 10 9 7 6 6 7 9 11 12 12 11 11 10
6 6 6 6 6 6 5 4 3 3 4 5 6 8 9 11 12 13 13 13 11 12 16 21 21 19 18 18 16 13 12 11 9 7 6 6 7 9 11 12 12 11 11 10
6 6 5 5 6 7 6 5 4 4 4 5 7 8 10 12 12 12 12 11 10 11 16 22 24 22 20 19 17 14 12 10 9 7 7 7 7 9 10 11 9 8 8 9
7 6 4 4 5 6 6 5 5 6 6 7 8 10 11 11 11 10 9 9 10 11 15 21 25 24 22 20 17 13 11 9 8 8 7 7 7 8 10 9 7 5 5 5
7 5 4 4 4 5 5 5 5 6 7 8 9 11 12 11 10 8 8 8 10 12 15 20 24 24 22 19 16 12 10 8 8 8 8 7 7 8 9 10 8 6 4 2
5 5 4 4 4 5 5 6 6 6 7 8 10 12 12 11 9 9 9 9 11 13 15 19 22 23 21 18 14 11 8 8 9 9 9 8 7 8 9 11 11 8 6 4
5 5 5 5 5 5 5 7 7 7 8 10 11 12 11 10 9 9 9 9 10 13 16 19 22 22 20 16 12 9 8 8 9 10 9 8 8 8 9 11 12 11 8 6
4 5 5 5 5 6 7 8 10 10 11 12 12 12 10 8 8 8 8 8 9 12 16 21 23 23 21 16 11 9 9 10 10 10 9 8 8 8 8 10 12 12 10 7
3 4 5 5 6 7 9 11 12 13 13 12 12 11 9 8 8 8 7 8 9 12 17 23 27 27 24 19 14 11 11 12 11 10 10 9 8 8 8 9 11 12 11 8
3 3 4 5 6 7 8 10 12 12 12 11 9 9 8 9 9 8 7 8 8 11 18 25 29 30 26 20 15 12 12 11 10 10 10 9 9 8 7 8 9 12 11 8
3 3 3 4 5 6 6 8 9 10 11 10 9 8 8 8 8 8 8 8 8 11 17 23 27 27 23 17 12 10 10 9 8 8 9 9 8 8 7 7 9 12 11 8
6 5 5 5 5 6 6 6 7 8 9 10 9 8 8 8 8 8 8 9 10 11 13 16 19 20 17 12 9 8 8 7 6 6 7 7 7 7 7 8 10 12 10 7
9 8 7 6 6 6 6 6 8 9 10 10 11 11 11 11 10 9 10 11 10 10 10 10 11 11 9 8 7 8 7 7 6 5 5 6 6 6 6 7 10 10 8 6
9 8 7 6 6 5 5 6 9 11 12 12 14 15 15 14 12 10 9 8 7 7 8 6 5 4 4 5 6 6 6 6 6 5 5 6 6 6 6 7 7 7 6 5
7 7 6 5 5 5 6 8 11 13 13 14 14 15 14 12 11 9 7 5 4 5 6 4 2 1 1 2 4 4 4 4 4 4 5 6 6 6 7 7 7 6 5 5
7 6 6 6 6 6 8 10 11 12 13 12 12 11 9 8 7 6 4 3 3 4 4 2 0 0 1 2 2 2 2 3 3 3 4 4 4 5 6 7 7 6 6 5
7 7 8 9 9 8 9 10 10 11 11 10 9 7 5 4 4 3 3 2 2 3 3 2 1 1 1 2 2 2 2 2 2 3 3 3 3 4 4 5 5 5 5 5
7 8 10 12 12 10 9 9 9 10 10 9 7 5 4 3 3 2 2 2 2 3 3 3 2 1 1 2 2 2 2 2 2 3 3 3 3 3 3 3 4 4 4 4

GEFSNGP_con_maxscp_246.txt.gz
SCP
0 0 0 0 0 0 0 0 0 1 1 2 3 5 8 9 10 9 8 8 7 6 6 6 6 7 7 7 9 14 23 34 45 54 59 63 65 64 60 53 38 21 11 6
0 0 0 0 0 0 0 0 0 1 2 3 4 7 8 9 9 8 7 7 6 5 5 5 5 6 8 12 15 20 28 39 51 61 67 70 71 72 66 51 32 17 9 6
0 0 0 0 0 0 0 0 1 1 2 3 6 8 9 9 9 7 6 5 5 5 6 8 10 15 21 28 33 37 44 55 69 78 83 84 86 86 70 43 22 12 8 6
0 0 0 0 0 0 0 1 2 2 2 4 6 7 7 8 9 8 6 5 5 7 11 17 24 34 43 50 56 61 67 79 94 102 105 109 111 98 66 34 17 11 8 7
0 0 0 0 1 1 2 3 3 3 3 5 6 7 8 10 11 11 11 12 16 23 32 39 44 51 60 67 72 77 82 96 111 117 122 130 124 94 56 31 21 18 13 9
0 0 0 1 1 2 3 3 3 4 5 6 6 8 13 17 23 31 38 44 51 58 63 66 66 67 74 80 81 82 86 98 110 114 119 122 102 68 42 30 27 26 20 12
0 0 0 1 1 2 2 3 3 4 6 7 7 11 20 34 54 74 84 87 85 82 80 81 82 87 93 95 89 84 85 93 97 95 94 86 63 42 32 26 26 28 23 15
1 1 1 1 1 2 2 3 4 5 9 14 17 20 31 57 89 109 111 102 89 81 80 85 91 95 94 85 74 68 70 74 74 68 61 48 34 29 28 23 21 23 19 14
2 2 2 2 3 3 4 4 6 11 20 30 33 35 49 78 103 110 104 90 77 73 79 86 88 81 65 46 34 32 37 41 42 40 33 23 17 18 20 18 16 15 14 13
5 5 4 4 5 5 5 6 12 25 38 46 50 56 73 91 100 97 88 80 74 74 78 79 74 56 31 15 10 10 13 15 17 18 16 10 8 9 10 10 10 9 10 11
6 6 5 5 6 6 7 13 28 43 53 58 65 76 90 99 99 93 87 84 82 81 78 73 62 41 19 8 7 7 8 8 8 8 7 6 5 5 5 5 5 5 7 8
5 5 4 5 5 6 11 26 44 58 66 73 77 83 92 101 102 99 96 93 89 87 82 71 57 40 22 11 8 8 8 8 8 8 7 7 6 5 4 4 3 3 4 5
4 4 4 4 4 8 20 39 54 68 82 89 86 85 92 100 104 102 97 90 87 87 85 73 58 46 34 21 14 12 11 9 9 9 9 9 8 6 5 4 3 2 2 2
4 4 4 4 4 12 31 50 65 82 99 104 99 95 98 100 97 92 86 81 80 83 83 74 62 53 44 32 23 19 16 12 10 10 10 10 9 8 6 5 3 2 1 1
3 4 4 4 9 24 46 66 82 101 115 117 111 107 103 96 87 80 77 75 73 73 71 63 53 45 38 30 25 21 17 13 11 10 10 10 10 8 6 5 4 3 2 1
4 4 4 7 16 36 60 81 98 114 123 123 119 113 104 93 83 76 71 68 64 57 47 37 29 25 22 20 19 18 14 11 10 10 10 10 9 8 6 6 6 5 4 3
4 4 6 9 17 36 63 88 106 117 121 123 121 113 102 91 81 72 64 57 47 35 23 14 12 12 13 14 14 13 12 10 10 10 11 10 9 7 7 7 7 7 6 6
4 5 82 135 87 28 61 92 107 112 117 124 122 110 95 82 72 62 51 39 28 18 10 7 8 12 13 13 13 13 12 11 10 10 9 8 8 7 7 7 7 7 7 7
6 8 134 258 134 24 61 94 105 108 118 128 121 101 81 66 56 47 35 24 18 13 8 5 7 10 13 14 14 14 14 12 11 9 8 8 8 8 8 7 7 6 5 5
9 10 84 133 86 29 66 99 110 116 130 135 119 91 68 53 44 35 26 21 17 12 7 5 5 8 11 13 14 15 16 14 12 10 8 8 8 8 8 7 6 5 4 4
9 8 8 11 21 49 88 115 124 135 145 140 114 83 61 47 38 32 29 27 20 10 6 5 5 6 8 11 14 16 17 16 13 10 8 7 7 7 6 5 4 4 4 4
7 6 7 19 43 78 114 134 148 160 159 139 106 76 57 45 38 36 37 32 19 8 5 5 5 4 5 7 11 15 16 15 12 10 7 5 4 4 4 4 3 3 3 3
6 7 14 35 64 91 109 132 159 174 160 126 92 70 55 44 39 41 40 28 13 5 4 4 3 3 3 5 8 11 12 11 9 8 5 4 3 3 3 3 2 2 2 2
18 27 42 54 61 75 91 109 133 145 131 103 79 63 51 41 36 36 30 16 5 3 2 2 1 1 1 3 5 7 7 6 6 5 3 2 2 1 1 1 2 1 1 1
58 73 79 63 49 66 93 99 96 98 92 78 63 50 39 31 25 21 14 7 2 2 2 1 0 0 1 2 3 3 3 3 2 2 2 1 1 1 0 0 1 1 1 1
101 99 86 60 45 62 88 90 78 72 66 56 42 31 23 17 12 8 5 2 1 1 1 1 0 0 1 1 1 1 1 1 1 1 1 1 1 0 0 0 0 0 0 0
110 94 72 55 44 49 64 72 68 60 51 40 27 18 13 9 6 3 2 1 0 1 1 1 0 0 0 0 1 1 1 1 1 1 1 1 1 0 0 0 0 0 0 0